Caldwell, NJ

1:07 AM EDT on September 18, 2019 (GMT -0400)
Essex County

Weather History for KCDW - May, 2019

Change the Weather History Date:

Friday, May 31, 2019

  Actual Average Record
Temperature  
Mean Temperature 72 °F -  
Max Temperature 82 °F 75 °F 93 °F (2013)
Min Temperature 62 °F 54 °F 37 °F (1961)
Cooling Degree Days 7    
Growing Degree Days 22 (Base 50)    
Moisture  
Dew Point 61 °F    
Average Humidity 80    
Maximum Humidity 100    
Minimum Humidity 39    
Precipitation  
Precipitation 0.02 in - - ()
Sea Level Pressure  
Sea Level Pressure 29.73 in    
Wind  
Wind Speed 3 mph (WSW)    
Max Wind Speed 10 mph    
Max Gust Speed -    
Visibility 6 miles    
Events Rain    
Averages and records for this station are not official NWS values.
T = Trace of Precipitation, MM = Missing Value Source: NWS Daily Summary

Daily Weather History Graph

Daily Weather History Graph

Search for Another Location

Airport or City:

Astronomy

May. 31, 2019 Rise Set
Actual Time 5:28 AM EDT 8:21 PM EDT
Civil Twilight 4:55 AM EDT 8:54 PM EDT
Nautical Twilight 4:14 AM EDT 9:35 PM EDT
Astronomical Twilight 3:26 AM EDT 10:23 PM EDT
Moon 4:02 AM EDT (5/31) 5:27 PM EDT (5/31)
Length of Visible Light 15h 58m
Length of Day
14h 53m
Waning Crescent, 9% of the Moon is Illuminated
May 31
Waning Crescent
Jun 3
New
Jun 10
First Quarter
Jun 17
Full
Jun 25
Last Quarter

Hourly Weather History & Observations

Time (EDT) Temp. Heat Index Dew Point Humidity Pressure Visibility Wind Dir Wind Speed Gust Speed Precip Events Conditions
12:06 AM 64.0 °F - 64.0 °F 100% 29.69 in 4.0 mi Calm Calm - 0.00 in Rain Light Rain
12:53 AM 64.9 °F - 64.0 °F 97% 29.66 in 4.0 mi South 5.8 mph - 0.02 in Rain Light Rain
1:34 AM 64.9 °F - 64.0 °F 97% 29.68 in 4.0 mi WNW 5.8 mph - 0.00 in   Overcast
1:53 AM 64.9 °F - 64.9 °F 100% 29.69 in 4.0 mi Calm Calm - 0.00 in   Overcast
2:26 AM 64.0 °F - 64.0 °F 100% 29.68 in 1.8 mi SSW 3.5 mph - N/A   Overcast
2:37 AM 64.0 °F - 64.0 °F 100% 29.67 in 1.0 mi SSW 4.6 mph - N/A   Overcast
2:53 AM 64.0 °F - 64.0 °F 100% 29.68 in 0.8 mi Calm Calm - N/A   Mist
3:00 AM 64.0 °F - 64.0 °F 100% 29.67 in 2.0 mi Variable 3.5 mph - N/A   Overcast
3:06 AM 64.0 °F - 64.0 °F 100% 29.67 in 4.0 mi Calm Calm - N/A   Overcast
3:16 AM 64.0 °F - 63.0 °F 96% 29.67 in 1.8 mi Calm Calm - N/A   Overcast
3:34 AM 63.0 °F - 63.0 °F 100% 29.67 in 0.8 mi Calm Calm - N/A   Scattered Clouds
3:43 AM 63.0 °F - 62.1 °F 97% 29.68 in 1.5 mi West 3.5 mph - N/A   Partly Cloudy
3:53 AM 62.1 °F - 62.1 °F 100% 29.69 in 1.8 mi Calm Calm - N/A   Clear
3:56 AM 62.1 °F - 62.1 °F 100% 29.67 in 1.0 mi South 3.5 mph - N/A   Mist
4:07 AM 63.0 °F - 63.0 °F 100% 29.68 in 2.0 mi SSW 3.5 mph - N/A   Partly Cloudy
4:23 AM 62.1 °F - 62.1 °F 100% 29.68 in 1.0 mi Calm Calm - N/A   Mist
4:31 AM 62.1 °F - 62.1 °F 100% 29.69 in 2.0 mi Calm Calm - N/A   Clear
4:40 AM 62.1 °F - 62.1 °F 100% 29.69 in 6.0 mi SSW 3.5 mph - N/A   Clear
4:53 AM 63.0 °F - 62.1 °F 97% 29.70 in 10.0 mi SSW 4.6 mph - N/A   Clear
5:53 AM 62.1 °F - 62.1 °F 100% 29.74 in 10.0 mi Calm Calm - N/A   Clear
6:53 AM 66.0 °F - 64.0 °F 93% 29.75 in 10.0 mi Calm Calm - N/A   Clear
7:53 AM 69.1 °F - 64.0 °F 84% 29.77 in 10.0 mi West 6.9 mph - N/A   Clear
8:53 AM 71.1 °F - 62.1 °F 73% 29.78 in 10.0 mi West 9.2 mph - N/A   Clear
9:53 AM 73.0 °F - 60.1 °F 64% 29.80 in 10.0 mi NW 10.4 mph - N/A   Clear
10:53 AM 75.0 °F - 59.0 °F 57% 29.81 in 10.0 mi WNW 9.2 mph - N/A   Partly Cloudy
11:53 AM 77.0 °F - 57.9 °F 52% 29.82 in 10.0 mi Variable 5.8 mph - N/A   Clear
12:53 PM 79.0 °F - 57.9 °F 48% 29.81 in 10.0 mi West 8.1 mph - N/A   Mostly Cloudy
1:53 PM 81.0 °F 80.8 °F 55.9 °F 42% 29.80 in 10.0 mi Variable 4.6 mph - N/A   Scattered Clouds
2:53 PM 82.0 °F 81.4 °F 55.0 °F 39% 29.78 in 10.0 mi Variable 6.9 mph - N/A   Scattered Clouds
3:53 PM 81.0 °F 80.7 °F 55.0 °F 41% 29.77 in 10.0 mi NW 9.2 mph - N/A   Partly Cloudy
4:53 PM 81.0 °F 80.7 °F 55.0 °F 41% 29.77 in 10.0 mi Variable 6.9 mph - N/A   Partly Cloudy
5:53 PM 81.0 °F 80.8 °F 55.9 °F 42% 29.77 in 10.0 mi West 5.8 mph - N/A   Scattered Clouds
6:53 PM 80.1 °F 80.2 °F 55.9 °F 43% 29.77 in 10.0 mi West 6.9 mph - N/A   Clear
7:53 PM 77.0 °F - 57.0 °F 50% 29.78 in 10.0 mi SW 3.5 mph - N/A   Clear
8:53 PM 73.9 °F - 57.9 °F 57% 29.80 in 10.0 mi Calm Calm - N/A   Clear
9:53 PM 71.1 °F - 59.0 °F 66% 29.82 in 10.0 mi Calm Calm - N/A   Clear
10:53 PM 69.1 °F - 60.1 °F 73% 29.82 in 10.0 mi South 3.5 mph - N/A   Clear
11:53 PM 66.0 °F - 60.1 °F 81% 29.83 in 10.0 mi Calm Calm - N/A   Clear